STARLINK-5085 (55392 NORAD) Tracking and Keplerian Element Data

This shows tracking and keplerian element data for the satellite.

Feedback or suggestion? Click here.




ElementValue
Catalog55392
NameSTARLINK-5085
Epoch Orbit1518
Epoch Day127.12552159
Epoch Year2023
RAAN181.3473
Inclination69.9951
Eccentricity0.0004491
Argument of Perigee272.3315
Mean Anonmoly87.7366
Mean Motion15.69911442
Decay Rate3.8E-06
L11 55392U 23014B 23127.12552159 .00000380 00000+0 49343-5 0 9997
L22 55392 69.9951 181.3473 0004491 272.3315 87.7366 15.69911442 15187



Live tracking and technical data element details for STARLINK-5085 (NORAD 55392). STARLINK-5085 can be tracked NOW for your location showing map with azimuth and elevation plus other details from your city location.







IsCatalogInMostPopularTable: catalog: 55392, numindb: 1
Update: records affected: 1



GetName: 55392 STARLINK-5085

Hit Count: updated at: Mon, 05 Jun 2023 20:02:17 GMT